Flag for U.S.A. Weather past 2 weeks in Oxnard, California, U.S.A.

Now
68 °F

Sunny.


Feels Like: 68 °F
Forecast: 67 / 81 °F
Wind: 6 mph from Northwest

Location: Oxnard Airport

Current Time: Sep 14, 2014 at 8:13:26 PM

Latest Report: Sep 14, 2014 at 7:51 PM


Visibility: 7 mi

Pressure: 29.72 "Hg

Humidity: 84%

Dew point: 63 °F

Location of OxnardLocation

Historic Weather in Oxnard — Graph

°F

Oxnard temperature yesterday

Maximum temperature yesterday: 77 °F (at 12:51 PM)
Minimum temperature yesterday: 61 °F (at 5:58 AM)
Average temperature yesterday: 68 °F

Past Weeks' High & Low Weather Summary

 TemperatureHumidityPressure
High79 °F (Aug 31, 2:51 PM)94% (Sep 10, 10:51 PM)29.93 "Hg (Sep 10, 10:51 PM)
Low58 °F (Sep 6, 6:51 AM)37% (Sep 10, 9:51 AM)29.70 "Hg (Sep 14, 5:51 PM)
Average68 °F79%29.81 "Hg
* Reported Aug 30 6:51 PM — Sep 14 6:51 PM, Oxnard, Weather by CustomWeather, © 2014

Note: Actual official high and low records may vary slightly from our data, if they occured in-between our weather recording intervals... More about our weather records

Advertising

Oxnard weather history for previous 24 hours

 ConditionsComfort  
Time TempWeatherWind HumidityBarometerVisibility
6:51 PM
Sep 14
70 °FSunny.13 mph79%29.70 "Hg7 mi
5:51 PM72 °FSunny.16 mph76%29.70 "Hg7 mi
4:51 PM74 °FSunny.18 mph69%29.70 "Hg7 mi
3:51 PM76 °FSunny.18 mph64%29.71 "Hg8 mi
2:51 PM76 °FSunny.20 mph67%29.72 "Hg8 mi
1:51 PM78 °FSunny.16 mph58%29.73 "Hg9 mi
12:51 PM78 °FSunny.13 mph64%29.75 "Hg9 mi
11:51 AM77 °FSunny.12 mph69%29.76 "Hg8 mi
10:51 AM74 °FSunny.12 mph74%29.77 "Hg8 mi
9:51 AM72 °FSunny.9 mph78%29.77 "Hg8 mi
8:51 AM70 °FSunny.7 mph84%29.77 "Hg7 mi
8:01 AM68 °FFog.8 mph90%29.76 "Hg5 mi
6:51 AM65 °FFog.3 mph94%29.74 "Hg5 mi
5:51 AM64 °FFog.No wind94%29.73 "Hg6 mi
4:51 AM65 °FFog.No wind94%29.72 "Hg6 mi
3:51 AM65 °FFog.No wind94%29.72 "Hg6 mi
2:51 AM66 °FClear.3 mph90%29.72 "Hg7 mi
1:51 AM66 °FFog.5 mph90%29.72 "Hg6 mi
12:51 AM66 °FFog.3 mph90%29.72 "Hg6 mi
11:51 PM
Sep 13
66 °FClear.3 mph90%29.73 "Hg7 mi
10:51 PM66 °FClear.6 mph90%29.73 "Hg7 mi
9:51 PM66 °FFog.7 mph90%29.72 "Hg6 mi
8:51 PM67 °FClear.8 mph87%29.73 "Hg7 mi
Weather by CustomWeather, © 2014

See weather overviewHow to use our weather pages